Fort Wayne, IN

8:41 PM EST on February 05, 2016 (GMT -0500)
Fort Wayne International

Weather History for KFWA - May, 2013

Change the Weather History Date:

Tuesday, May 7, 2013

  Actual Average Record
Temperature  
Mean Temperature 65 °F 58 °F  
Max Temperature 75 °F 69 °F 87 °F (1926)
Min Temperature 54 °F 46 °F 28 °F (1989)
Degree Days  
Heating Degree Days 0 8  
Month to date heating degree days 8 63  
Since 1 July heating degree days 5878 5945  
Cooling Degree Days 0 1  
Month to date cooling degree days 7 3  
Year to date cooling degree days 7 11  
Growing Degree Days 14 (Base 50)    
Moisture  
Dew Point 52 °F    
Average Humidity 63    
Maximum Humidity 77    
Minimum Humidity 49    
Precipitation  
Precipitation 0.00 in 0.11 in 1.08 in (2004)
Month to date precipitation T 0.78  
Year to date precipitation 14.73 11.31  
Snow  
Snow 0.00 in 0.00 in T in (1947)
Month to date snowfall 0.0 0.0  
Since 1 July snowfall 38.5 33.5  
Snow Depth 0.00 in    
Sea Level Pressure  
Sea Level Pressure 30.00 in    
Wind  
Wind Speed 7 mph (ENE)    
Max Wind Speed 16 mph    
Max Gust Speed 20 mph    
Visibility 10 miles    
Events      
T = Trace of Precipitation, MM = Missing Value Source: NWS Daily Summary

Daily Weather History Graph

Daily Weather History Graph

Search for Another Location

Airport or City:

Trip Planner

Search our weather history database for the weather conditions in past years. The results will help you decide how hot, cold, wet, or windy it might be!

Date:

Astronomy

May. 07, 2013 Rise Set
Actual Time 6:31 AM EDT 8:44 PM EDT
Civil Twilight 6:00 AM EDT 9:14 PM EDT
Nautical Twilight 5:23 AM EDT 9:52 PM EDT
Astronomical Twilight 4:42 AM EDT 10:33 PM EDT
Moon 5:06 AM EDT (5/7) 6:42 PM EDT (5/7)
Length of Visible Light 15h 13m
Length of Day
14h 12m
Waning Crescent, 5% of the Moon is Illuminated
May 7
Waning Crescent
May 9
New
May 18
First Quarter
May 25
Full
May 31
Last Quarter

Hourly Weather History & Observations

Time (EDT) Temp. Dew Point Humidity Pressure Visibility Wind Dir Wind Speed Gust Speed Precip Events Conditions
12:54 AM 61.0 °F 50.0 °F 67% 30.00 in 10.0 mi East 5.8 mph - N/A   Overcast
1:54 AM 59.0 °F 50.0 °F 72% 29.99 in 10.0 mi ENE 5.8 mph - N/A   Overcast
2:54 AM 59.0 °F 50.0 °F 72% 29.98 in 10.0 mi ENE 5.8 mph - N/A   Overcast
3:54 AM 57.0 °F 48.9 °F 74% 29.98 in 10.0 mi ENE 3.5 mph - N/A   Mostly Cloudy
4:54 AM 55.9 °F 48.9 °F 77% 29.99 in 10.0 mi East 4.6 mph - N/A   Mostly Cloudy
5:54 AM 55.4 °F 48.2 °F 77% 30.00 in 10.0 mi NE 4.6 mph - N/A   Mostly Cloudy
6:54 AM 54.0 °F 46.9 °F 77% 30.01 in 10.0 mi NE 5.8 mph - N/A   Mostly Cloudy
7:54 AM 57.0 °F 48.9 °F 74% 30.02 in 10.0 mi NNE 4.6 mph - N/A   Mostly Cloudy
8:54 AM 59.0 °F 48.9 °F 69% 30.03 in 10.0 mi NNE 3.5 mph - N/A   Mostly Cloudy
9:54 AM 63.0 °F 51.1 °F 65% 30.03 in 10.0 mi NE 5.8 mph - N/A   Mostly Cloudy
10:54 AM 66.9 °F 53.1 °F 61% 30.03 in 10.0 mi ENE 8.1 mph - N/A   Mostly Cloudy
11:54 AM 68.0 °F 54.0 °F 61% 30.02 in 10.0 mi NNE 6.9 mph - N/A   Mostly Cloudy
12:54 PM 72.0 °F 55.0 °F 55% 30.01 in 10.0 mi NNE 9.2 mph - N/A   Mostly Cloudy
1:54 PM 72.0 °F 53.1 °F 51% 30.00 in 10.0 mi NE 12.7 mph - N/A   Mostly Cloudy
2:54 PM 71.1 °F 53.1 °F 53% 29.99 in 10.0 mi ENE 11.5 mph - N/A   Mostly Cloudy
3:54 PM 71.1 °F 54.0 °F 55% 29.98 in 10.0 mi ENE 10.4 mph - N/A   Overcast
4:54 PM 72.0 °F 54.0 °F 53% 29.97 in 10.0 mi ENE 9.2 mph - N/A   Mostly Cloudy
5:54 PM 73.0 °F 54.0 °F 51% 29.96 in 10.0 mi NE 9.2 mph - N/A   Mostly Cloudy
6:54 PM 73.0 °F 53.1 °F 49% 29.96 in 10.0 mi ENE 9.2 mph - N/A   Mostly Cloudy
7:54 PM 70.0 °F 54.0 °F 57% 29.97 in 10.0 mi ENE 6.9 mph - N/A   Mostly Cloudy
8:54 PM 66.0 °F 53.1 °F 63% 29.99 in 10.0 mi ENE 8.1 mph - N/A   Scattered Clouds
9:54 PM 62.1 °F 52.0 °F 70% 30.00 in 10.0 mi ENE 6.9 mph - N/A   Scattered Clouds
10:54 PM 61.0 °F 52.0 °F 72% 30.01 in 10.0 mi ENE 8.1 mph - N/A   Mostly Cloudy
11:54 PM 59.0 °F 52.0 °F 78% 30.01 in 10.0 mi East 5.8 mph - N/A   Mostly Cloudy